THOR 6

Last updated on Thu Jul 03 2025 00:02:45 GMT+0000 (Coordinated Universal Time)

1 36033U 09058B 25183.35392052 -.00000003 00000+0 00000+0 0 9997 2 36033 0.0081 72.8243 0001942 44.7900 289.5718 1.00271568 57497
UTC large
Height (km)
Speed (km/s)
/
Latitude / Longitude
Inclination (degrees)
Orbital Period (minutes)
Azimuth
Elevation
Range (km)
Doppler Factor

Next 0 passes for location: London (51.5072 / 0.1276)

Sorry there are no passes over London.